This is the latest recevied weather packets stored in our database for station/object KC1BRV. If no packets are shown the sender has not sent any weather packets the latest 10 day(s).
| Time | Temp. | Humidity | Pressure | Rain* | Wind** | Luminosity | Snow |
|---|---|---|---|---|---|---|---|
| 1777542453 | 7.78° C | 97% | 1008.1 hPa | 0 mm | - | 1 W/m² | - |
| 1777542150 | 7.78° C | 97% | 1008.4 hPa | 0 mm | - | 0 W/m² | - |
| 1777541847 | 7.78° C | 97% | 1008.4 hPa | 0 mm | - | 0 W/m² | - |
| 1777541544 | 8.33° C | 97% | 1008.5 hPa | 0 mm | - | 0 W/m² | - |
| 1777541241 | 8.33° C | 97% | 1008.5 hPa | 0 mm | - | 0 W/m² | - |
| 1777540937 | 8.33° C | 97% | 1008.9 hPa | 0 mm | - | 0 W/m² | - |
| 1777540635 | 7.78° C | 97% | 1008.8 hPa | 0 mm | - | 0 W/m² | - |
| 1777540332 | 8.33° C | 97% | 1008.7 hPa | 0 mm | - | 0 W/m² | - |
| 1777540028 | 7.78° C | 97% | 1009 hPa | 0 mm | - | 0 W/m² | - |
| 1777539723 | 7.78° C | 97% | 1009.2 hPa | 0 mm | - | 0 W/m² | - |
| 1777539419 | 7.78° C | 97% | 1009.2 hPa | 0 mm | - | 0 W/m² | - |
| 1777539116 | 7.78° C | 97% | 1009.2 hPa | 1.78 mm | - | 0 W/m² | - |
| 1777538812 | 8.33° C | 97% | 1009.4 hPa | 1.78 mm | - | 0 W/m² | - |
| 1777538512 | 7.78° C | 97% | 1009.4 hPa | 0 mm | - | 0 W/m² | - |
| 1777538208 | 7.78° C | 97% | 1009.3 hPa | 1.27 mm | - | 0 W/m² | - |
| 1777537903 | 7.78° C | 97% | 1009 hPa | 1.27 mm | - | 0 W/m² | - |
| 1777537600 | 7.78° C | 97% | 1008.9 hPa | 1.78 mm | - | 0 W/m² | - |
| 1777537296 | 7.78° C | 96% | 1009 hPa | 1.78 mm | - | 0 W/m² | - |
| 1777536992 | 7.78° C | 96% | 1008.9 hPa | 0 mm | - | 0 W/m² | - |
| 1777536690 | 7.78° C | 96% | 1008.9 hPa | 0 mm | - | 0 W/m² | - |
| 1777536386 | 7.78° C | 96% | 1009 hPa | 0 mm | - | 0 W/m² | - |
| 1777536083 | 7.78° C | 96% | 1009.3 hPa | 1.27 mm | - | 0 W/m² | - |
| 1777535779 | 7.78° C | 96% | 1009.2 hPa | 1.27 mm | - | 0 W/m² | - |
| 1777535476 | 7.78° C | 96% | 1009.1 hPa | 0 mm | - | 0 W/m² | - |
| 1777535173 | 8.33° C | 95% | 1009.5 hPa | 1.78 mm | - | 0 W/m² | - |
* Rain latest hour (hover to see other rain measurements)
** Current wind speed in m/s (hover to see current wind gust speed)